| time (UTC) | temp F | wind direction | speed MPH | gust MPH | rain 1hr in | rain 24hr in | rain mn in | humidity % | barometer mb |
| 20260903191555 | 89 | 198 | 2.0 | 7.0 | 0.00 | 0.00 | 0.00 | 61 | 1019.7 |
| 20260903191034 | 89 | 196 | 2.0 | 7.0 | 0.00 | 0.00 | 0.00 | 61 | 1019.8 |
| 20260903190535 | 89 | 206 | 1.0 | 5.0 | 0.00 | 0.00 | 0.00 | 60 | 1020.0 |
| 20260903190106 | 89 | 0 | 2.0 | 5.0 | 0.00 | 0.00 | 0.00 | 61 | 1019.9 |
| 20260903185537 | 89 | 188 | 0.0 | 5.0 | 0.00 | 0.00 | 0.00 | 65 | 1019.8 |
| 20260903185035 | 89 | 205 | 0.0 | 5.0 | 0.00 | 0.00 | 0.00 | 63 | 1019.9 |
| 20260903184556 | 89 | 209 | 0.0 | 2.0 | 0.00 | 0.00 | 0.00 | 65 | 1020.0 |
| 20260903184034 | 90 | 0 | 0.0 | 3.0 | 0.00 | 0.00 | 0.00 | 65 | 1020.0 |
| 20260903183533 | 89 | 0 | 0.0 | 5.0 | 0.00 | 0.00 | 0.00 | 62 | 1020.0 |
| 20260903183109 | 88 | 111 | 1.0 | 7.0 | 0.00 | 0.00 | 0.00 | 65 | 1020.1 |
| 20260903182537 | 88 | 178 | 1.0 | 7.0 | 0.00 | 0.00 | 0.00 | 67 | 1020.2 |
| 20260903182036 | 87 | 201 | 2.0 | 5.0 | 0.00 | 0.00 | 0.00 | 68 | 1020.2 |
| 20260903181557 | 87 | 0 | 0.0 | 2.0 | 0.00 | 0.00 | 0.00 | 76 | 1020.1 |
| 20260903181036 | 86 | 240 | 0.0 | 2.0 | 0.00 | 0.00 | 0.00 | 71 | 1020.2 |
| 20260903180534 | 85 | 0 | 0.0 | 2.0 | 0.00 | 0.00 | 0.00 | 73 | 1020.2 |
| 20260903180100 | 85 | 0 | 0.0 | 2.0 | 0.00 | 0.00 | 0.00 | 73 | 1020.2 |
| 20260903175534 | 85 | 244 | 1.0 | 2.0 | 0.00 | 0.00 | 0.00 | 72 | 1020.3 |
| 20260903175034 | 86 | 0 | 0.0 | 1.0 | 0.00 | 0.00 | 0.00 | 71 | 1020.3 |
| 20260903174551 | 86 | 249 | 0.0 | 1.0 | 0.00 | 0.00 | 0.00 | 68 | 1020.4 |
| 20260903174032 | 87 | 0 | 0.0 | 1.0 | 0.00 | 0.00 | 0.00 | 71 | 1020.4 |
| 20260903173537 | 87 | 0 | 0.0 | 2.0 | 0.00 | 0.00 | 0.00 | 69 | 1020.5 |
| 20260903173059 | 88 | 0 | 0.0 | 2.0 | 0.00 | 0.00 | 0.00 | 65 | 1020.6 |
| 20260903172536 | 87 | 0 | 0.0 | 3.0 | 0.00 | 0.00 | 0.00 | 67 | 1020.7 |
| 20260903172034 | 87 | 0 | 0.0 | 3.0 | 0.00 | 0.00 | 0.00 | 66 | 1020.6 |
| 20260903171610 | 87 | 0 | 1.0 | 3.0 | 0.00 | 0.00 | 0.00 | 67 | 1020.7 |
| 20260903171035 | 87 | 0 | 1.0 | 3.0 | 0.00 | 0.00 | 0.00 | 69 | 1020.7 |
| 20260903170535 | 86 | 219 | 1.0 | 4.0 | 0.00 | 0.00 | 0.00 | 71 | 1020.7 |
| 20260903170105 | 87 | 0 | 0.0 | 4.0 | 0.00 | 0.00 | 0.00 | 68 | 1020.9 |
| 20260903165533 | 87 | 0 | 2.0 | 4.0 | 0.00 | 0.00 | 0.00 | 66 | 1020.8 |
| 20260903165033 | 87 | 205 | 1.0 | 5.0 | 0.00 | 0.00 | 0.00 | 69 | 1021.0 |
| 20260903164555 | 87 | 205 | 2.0 | 5.0 | 0.00 | 0.00 | 0.00 | 68 | 1020.9 |
| 20260903164033 | 87 | 210 | 2.0 | 4.0 | 0.00 | 0.00 | 0.00 | 69 | 1021.2 |
| 20260903163535 | 86 | 198 | 1.0 | 3.0 | 0.00 | 0.00 | 0.00 | 69 | 1021.2 |
| 20260903163048 | 86 | 194 | 0.0 | 6.0 | 0.00 | 0.00 | 0.00 | 73 | 1021.4 |
| 20260903162536 | 86 | 259 | 2.0 | 6.0 | 0.00 | 0.00 | 0.00 | 70 | 1021.3 |
| 20260903162034 | 86 | 207 | 2.0 | 4.0 | 0.00 | 0.00 | 0.00 | 71 | 1021.4 |
| 20260903161559 | 86 | 202 | 1.0 | 5.0 | 0.00 | 0.00 | 0.00 | 71 | 1021.6 |
| 20260903161035 | 86 | 201 | 1.0 | 5.0 | 0.00 | 0.00 | 0.00 | 71 | 1021.5 |
| 20260903160533 | 86 | 0 | 0.0 | 3.0 | 0.00 | 0.00 | 0.00 | 70 | 1021.5 |
| 20260903160051 | 85 | 0 | 0.0 | 3.0 | 0.00 | 0.00 | 0.00 | 72 | 1021.6 |
| 20260903155533 | 85 | 215 | 0.0 | 3.0 | 0.00 | 0.00 | 0.00 | 72 | 1021.6 |
| 20260903155035 | 85 | 0 | 0.0 | 3.0 | 0.00 | 0.00 | 0.00 | 70 | 1021.7 |
| 20260903154559 | 84 | 211 | 0.0 | 2.0 | 0.00 | 0.00 | 0.00 | 72 | 1021.6 |
| 20260903154043 | 84 | 211 | 0.0 | 2.0 | 0.00 | 0.00 | 0.00 | 73 | 1021.6 |
| 20260903153537 | 84 | 0 | 0.0 | 2.0 | 0.00 | 0.00 | 0.00 | 73 | 1021.7 |
| 20260903153057 | 83 | 205 | 0.0 | 3.0 | 0.00 | 0.00 | 0.00 | 75 | 1021.7 |
| 20260903152535 | 83 | 0 | 0.0 | 3.0 | 0.00 | 0.00 | 0.00 | 75 | 1021.6 |
| 20260903152033 | 83 | 203 | 1.0 | 3.0 | 0.00 | 0.00 | 0.00 | 74 | 1021.6 |
| 20260903151558 | 83 | 0 | 0.0 | 2.0 | 0.00 | 0.00 | 0.00 | 75 | 1021.6 |
| 20260903151036 | 82 | 0 | 0.0 | 2.0 | 0.00 | 0.00 | 0.00 | 74 | 1021.7 |
| 20260903150533 | 82 | 0 | 0.0 | 3.0 | 0.00 | 0.00 | 0.00 | 75 | 1021.7 |
| 20260903145537 | 82 | 213 | 0.0 | 3.0 | 0.00 | 0.00 | 0.00 | 75 | 1021.5 |
| 20260903145036 | 81 | 0 | 0.0 | 2.0 | 0.00 | 0.00 | 0.00 | 76 | 1021.6 |
| 20260903144550 | 81 | 0 | 0.0 | 1.0 | 0.00 | 0.00 | 0.00 | 77 | 1021.6 |
| 20260903144034 | 81 | 0 | 0.0 | 1.0 | 0.00 | 0.00 | 0.00 | 77 | 1021.6 |
| 20260903143533 | 81 | 0 | 0.0 | 0.0 | 0.00 | 0.00 | 0.00 | 78 | 1021.5 |
| 20260903143105 | 80 | 0 | 0.0 | 0.0 | 0.00 | 0.00 | 0.00 | 78 | 1021.5 |
| 20260903142535 | 80 | 0 | 0.0 | 0.0 | 0.00 | 0.00 | 0.00 | 79 | 1021.5 |
| 20260903142035 | 79 | 0 | 0.0 | 0.0 | 0.00 | 0.00 | 0.00 | 80 | 1021.6 |
| 20260903141608 | 79 | 0 | 0.0 | 0.0 | 0.00 | 0.00 | 0.00 | 81 | 1021.5 |
| 20260903141033 | 78 | 0 | 0.0 | 0.0 | 0.00 | 0.00 | 0.00 | 83 | 1021.4 |
| 20260903140533 | 78 | 0 | 0.0 | 0.0 | 0.00 | 0.00 | 0.00 | 85 | 1021.7 |
| 20260903140052 | 77 | 0 | 0.0 | 0.0 | 0.00 | 0.00 | 0.00 | 85 | 1021.6 |
| 20260903135533 | 76 | 0 | 0.0 | 0.0 | 0.00 | 0.00 | 0.00 | 85 | 1021.6 |
| 20260903135033 | 76 | 0 | 0.0 | 1.0 | 0.00 | 0.00 | 0.00 | 87 | 1021.7 |
| 20260903134559 | 75 | 0 | 0.0 | 1.0 | 0.00 | 0.00 | 0.00 | 88 | 1021.7 |
| 20260903134035 | 75 | 0 | 0.0 | 0.0 | 0.00 | 0.00 | 0.00 | 89 | 1021.6 |
| 20260903133537 | 74 | 0 | 0.0 | 0.0 | 0.00 | 0.00 | 0.00 | 90 | 1021.6 |
| 20260903133057 | 74 | 0 | 0.0 | 0.0 | 0.00 | 0.00 | 0.00 | 91 | 1021.8 |
| 20260903132536 | 73 | 0 | 0.0 | 0.0 | 0.00 | 0.00 | 0.00 | 91 | 1021.7 |
| 20260903132037 | 72 | 0 | 0.0 | 0.0 | 0.00 | 0.00 | 0.00 | 92 | 1021.8 |
| 20260903131609 | 72 | 0 | 0.0 | 0.0 | 0.00 | 0.00 | 0.00 | 93 | 1021.9 |
| 20260903131033 | 71 | 0 | 0.0 | 0.0 | 0.00 | 0.00 | 0.00 | 94 | 1022.0 |
| 20260903130534 | 70 | 0 | 0.0 | 0.0 | 0.00 | 0.00 | 0.00 | 95 | 1021.9 |
| 20260903130055 | 70 | 0 | 0.0 | 0.0 | 0.00 | 0.00 | 0.00 | 95 | 1022.0 |
| 20260903125533 | 70 | 0 | 0.0 | 0.0 | 0.00 | 0.00 | 0.00 | 95 | 1022.0 |
| 20260903125033 | 70 | 0 | 0.0 | 0.0 | 0.00 | 0.00 | 0.00 | 95 | 1021.9 |
| 20260903124552 | 69 | 0 | 0.0 | 0.0 | 0.00 | 0.00 | 0.00 | 95 | 1022.0 |
| 20260903124032 | 69 | 0 | 0.0 | 0.0 | 0.00 | 0.00 | 0.00 | 95 | 1022.0 |
| 20260903123535 | 69 | 0 | 0.0 | 0.0 | 0.00 | 0.00 | 0.00 | 95 | 1022.1 |
| 20260903123104 | 68 | 0 | 0.0 | 0.0 | 0.00 | 0.00 | 0.00 | 95 | 1022.1 |
| 20260903122536 | 68 | 0 | 0.0 | 0.0 | 0.00 | 0.00 | 0.00 | 94 | 1021.9 |
| 20260903122036 | 68 | 0 | 0.0 | 0.0 | 0.00 | 0.00 | 0.00 | 94 | 1022.0 |
| 20260903121620 | 68 | 0 | 0.0 | 0.0 | 0.00 | 0.00 | 0.00 | 94 | 1022.0 |
| 20260903121033 | 68 | 0 | 0.0 | 0.0 | 0.00 | 0.00 | 0.00 | 94 | 1022.0 |
| 20260903120532 | 68 | 0 | 0.0 | 0.0 | 0.00 | 0.00 | 0.00 | 94 | 1021.9 |
| 20260903120053 | 68 | 0 | 0.0 | 0.0 | 0.00 | 0.00 | 0.00 | 94 | 1021.8 |
| 20260903115533 | 68 | 0 | 0.0 | 0.0 | 0.00 | 0.00 | 0.00 | 94 | 1021.8 |
| 20260903115035 | 68 | 0 | 0.0 | 0.0 | 0.00 | 0.00 | 0.00 | 94 | 1021.6 |
| 20260903114557 | 68 | 0 | 0.0 | 0.0 | 0.00 | 0.00 | 0.00 | 94 | 1021.6 |
| 20260903114035 | 68 | 0 | 0.0 | 0.0 | 0.00 | 0.00 | 0.00 | 94 | 1021.6 |
| 20260903113535 | 68 | 0 | 0.0 | 0.0 | 0.00 | 0.00 | 0.00 | 94 | 1021.5 |
| 20260903113055 | 68 | 0 | 0.0 | 0.0 | 0.00 | 0.00 | 0.00 | 94 | 1021.5 |
| 20260903112536 | 68 | 0 | 0.0 | 0.0 | 0.00 | 0.00 | 0.00 | 94 | 1021.4 |
| 20260903112035 | 68 | 0 | 0.0 | 0.0 | 0.00 | 0.00 | 0.00 | 94 | 1021.4 |
| 20260903111558 | 68 | 0 | 0.0 | 0.0 | 0.00 | 0.00 | 0.00 | 94 | 1021.2 |
| 20260903111035 | 68 | 0 | 0.0 | 0.0 | 0.00 | 0.00 | 0.00 | 94 | 1021.3 |
| 20260903110536 | 68 | 0 | 0.0 | 0.0 | 0.00 | 0.00 | 0.00 | 94 | 1021.2 |
| 20260903110053 | 68 | 0 | 0.0 | 0.0 | 0.00 | 0.00 | 0.00 | 93 | 1021.1 |
| 20260903105535 | 68 | 0 | 0.0 | 0.0 | 0.00 | 0.00 | 0.00 | 93 | 1021.0 |
| 20260903105036 | 68 | 0 | 0.0 | 0.0 | 0.00 | 0.00 | 0.00 | 93 | 1020.9 |
| 20260903104603 | 68 | 0 | 0.0 | 0.0 | 0.00 | 0.00 | 0.00 | 93 | 1021.0 |
| 20260903104036 | 68 | 0 | 0.0 | 0.0 | 0.00 | 0.00 | 0.00 | 94 | 1021.0 |
| 20260903103535 | 68 | 0 | 0.0 | 0.0 | 0.00 | 0.00 | 0.00 | 94 | 1020.8 |
| 20260903103057 | 68 | 0 | 0.0 | 0.0 | 0.00 | 0.00 | 0.00 | 94 | 1020.8 |
| 20260903102536 | 68 | 0 | 0.0 | 0.0 | 0.00 | 0.00 | 0.00 | 94 | 1020.9 |
| 20260903102035 | 68 | 0 | 0.0 | 0.0 | 0.00 | 0.00 | 0.00 | 94 | 1020.7 |
| 20260903101559 | 68 | 0 | 0.0 | 0.0 | 0.00 | 0.00 | 0.00 | 94 | 1020.9 |
| 20260903101033 | 68 | 0 | 0.0 | 0.0 | 0.00 | 0.00 | 0.00 | 94 | 1020.7 |
| 20260903100535 | 68 | 0 | 0.0 | 0.0 | 0.00 | 0.00 | 0.00 | 93 | 1020.6 |
| 20260903100056 | 68 | 0 | 0.0 | 0.0 | 0.00 | 0.00 | 0.00 | 93 | 1020.6 |
| 20260903095532 | 68 | 0 | 0.0 | 0.0 | 0.00 | 0.00 | 0.00 | 93 | 1020.6 |
| 20260903095038 | 68 | 0 | 0.0 | 0.0 | 0.00 | 0.00 | 0.00 | 93 | 1020.6 |
| 20260903094609 | 68 | 0 | 0.0 | 0.0 | 0.00 | 0.00 | 0.00 | 93 | 1020.6 |
| 20260903094036 | 69 | 0 | 0.0 | 0.0 | 0.00 | 0.00 | 0.00 | 93 | 1020.6 |
| 20260903093538 | 69 | 0 | 0.0 | 0.0 | 0.00 | 0.00 | 0.00 | 93 | 1020.5 |
| 20260903093102 | 69 | 0 | 0.0 | 0.0 | 0.00 | 0.00 | 0.00 | 93 | 1020.5 |
| 20260903092534 | 69 | 0 | 0.0 | 0.0 | 0.00 | 0.00 | 0.00 | 93 | 1020.6 |
| 20260903092034 | 69 | 0 | 0.0 | 0.0 | 0.00 | 0.00 | 0.00 | 93 | 1020.7 |
| 20260903091602 | 69 | 0 | 0.0 | 0.0 | 0.00 | 0.00 | 0.00 | 93 | 1020.6 |
| 20260903091034 | 69 | 0 | 0.0 | 0.0 | 0.00 | 0.00 | 0.00 | 93 | 1020.5 |
| 20260903090534 | 69 | 0 | 0.0 | 0.0 | 0.00 | 0.00 | 0.00 | 93 | 1020.4 |
| 20260903090107 | 69 | 0 | 0.0 | 0.0 | 0.00 | 0.00 | 0.00 | 93 | 1020.5 |
| 20260903085535 | 69 | 0 | 0.0 | 0.0 | 0.00 | 0.00 | 0.00 | 93 | 1020.6 |
| 20260903085035 | 69 | 0 | 0.0 | 0.0 | 0.00 | 0.00 | 0.00 | 93 | 1020.6 |
| 20260903084604 | 69 | 0 | 0.0 | 0.0 | 0.00 | 0.00 | 0.00 | 93 | 1020.5 |
| 20260903084035 | 69 | 0 | 0.0 | 0.0 | 0.00 | 0.00 | 0.00 | 93 | 1020.5 |
| 20260903083534 | 69 | 0 | 0.0 | 0.0 | 0.00 | 0.00 | 0.00 | 93 | 1020.5 |
| 20260903083052 | 69 | 0 | 0.0 | 0.0 | 0.00 | 0.00 | 0.00 | 93 | 1020.7 |
| 20260903082534 | 69 | 0 | 0.0 | 0.0 | 0.00 | 0.00 | 0.00 | 93 | 1020.7 |
| 20260903082034 | 69 | 0 | 0.0 | 0.0 | 0.00 | 0.00 | 0.00 | 93 | 1020.7 |
| 20260903081558 | 69 | 0 | 0.0 | 0.0 | 0.00 | 0.00 | 0.00 | 92 | 1020.7 |
| 20260903081035 | 69 | 0 | 0.0 | 0.0 | 0.00 | 0.00 | 0.00 | 92 | 1020.9 |
| 20260903080534 | 69 | 0 | 0.0 | 0.0 | 0.00 | 0.00 | 0.00 | 92 | 1020.8 |
| 20260903080050 | 70 | 0 | 0.0 | 0.0 | 0.00 | 0.00 | 0.00 | 93 | 1020.8 |
| 20260903075534 | 70 | 0 | 0.0 | 0.0 | 0.00 | 0.00 | 0.00 | 93 | 1020.9 |
| 20260903075034 | 70 | 0 | 0.0 | 0.0 | 0.00 | 0.00 | 0.00 | 93 | 1020.9 |
| 20260903074555 | 70 | 0 | 0.0 | 0.0 | 0.00 | 0.00 | 0.00 | 93 | 1020.7 |
| 20260903074121 | 70 | 0 | 0.0 | 0.0 | 0.00 | 0.00 | 0.00 | 92 | 1020.8 |
| 20260903073535 | 70 | 0 | 0.0 | 0.0 | 0.00 | 0.00 | 0.00 | 92 | 1020.9 |
| 20260903073059 | 70 | 0 | 0.0 | 0.0 | 0.00 | 0.00 | 0.00 | 92 | 1020.9 |
| 20260903072618 | 70 | 0 | 0.0 | 0.0 | 0.00 | 0.00 | 0.00 | 92 | 1020.9 |
| 20260903072034 | 70 | 0 | 0.0 | 0.0 | 0.00 | 0.00 | 0.00 | 93 | 1020.6 |
| 20260903071554 | 70 | 0 | 0.0 | 0.0 | 0.00 | 0.00 | 0.00 | 93 | 1020.7 |
| 20260903071036 | 70 | 0 | 0.0 | 0.0 | 0.00 | 0.00 | 0.00 | 93 | 1020.7 |
| 20260903070536 | 70 | 0 | 0.0 | 0.0 | 0.00 | 0.00 | 0.00 | 93 | 1020.7 |
| 20260903065536 | 70 | 0 | 0.0 | 2.0 | 0.00 | 0.00 | 0.00 | 93 | 1020.7 |
| 20260903065033 | 70 | 0 | 0.0 | 2.0 | 0.00 | 0.00 | 0.00 | 92 | 1020.7 |
| 20260903064559 | 70 | 0 | 0.0 | 0.0 | 0.00 | 0.00 | 0.00 | 93 | 1020.7 |
| 20260903064035 | 70 | 0 | 0.0 | 0.0 | 0.00 | 0.00 | 0.00 | 93 | 1020.7 |
| 20260903063535 | 70 | 0 | 0.0 | 0.0 | 0.00 | 0.00 | 0.00 | 93 | 1020.9 |
| 20260903063057 | 70 | 0 | 0.0 | 0.0 | 0.00 | 0.00 | 0.00 | 93 | 1020.8 |
| 20260903062533 | 70 | 0 | 0.0 | 0.0 | 0.00 | 0.00 | 0.00 | 93 | 1020.8 |
| 20260903062033 | 70 | 0 | 0.0 | 0.0 | 0.00 | 0.00 | 0.00 | 92 | 1020.9 |
| 20260903061559 | 71 | 0 | 0.0 | 0.0 | 0.00 | 0.00 | 0.00 | 92 | 1021.0 |
| 20260903061034 | 71 | 0 | 0.0 | 0.0 | 0.00 | 0.00 | 0.00 | 92 | 1021.0 |
| 20260903060533 | 71 | 0 | 0.0 | 0.0 | 0.00 | 0.00 | 0.00 | 92 | 1021.1 |
| 20260903055533 | 71 | 0 | 0.0 | 0.0 | 0.00 | 0.00 | 0.00 | 92 | 1021.1 |
| 20260903055032 | 71 | 0 | 0.0 | 0.0 | 0.00 | 0.00 | 0.00 | 92 | 1021.3 |
| 20260903054546 | 71 | 0 | 0.0 | 0.0 | 0.00 | 0.00 | 0.00 | 92 | 1021.1 |
| 20260903054033 | 71 | 0 | 0.0 | 0.0 | 0.00 | 0.00 | 0.00 | 92 | 1021.1 |
| 20260903053617 | 71 | 0 | 0.0 | 0.0 | 0.00 | 0.00 | 0.00 | 92 | 1020.9 |
| 20260903053100 | 71 | 0 | 0.0 | 0.0 | 0.00 | 0.00 | 0.00 | 92 | 1021.0 |
| 20260903052533 | 72 | 0 | 0.0 | 0.0 | 0.00 | 0.00 | 0.00 | 92 | 1021.1 |
| 20260903052034 | 72 | 0 | 0.0 | 0.0 | 0.00 | 0.00 | 0.00 | 92 | 1021.1 |
| 20260903051605 | 72 | 0 | 0.0 | 0.0 | 0.00 | 0.00 | 0.00 | 92 | 1021.3 |
| 20260903051035 | 72 | 0 | 0.0 | 0.0 | 0.00 | 0.00 | 0.00 | 92 | 1021.2 |
| 20260903050533 | 72 | 0 | 0.0 | 0.0 | 0.00 | 0.00 | 0.00 | 92 | 1021.2 |
| 20260903050059 | 72 | 0 | 0.0 | 0.0 | 0.00 | 0.00 | 0.00 | 92 | 1021.1 |
| 20260903045534 | 72 | 0 | 0.0 | 0.0 | 0.00 | 0.00 | 0.00 | 92 | 1021.1 |
| 20260903045033 | 72 | 0 | 0.0 | 0.0 | 0.00 | 0.00 | 0.00 | 92 | 1021.0 |
| 20260903044550 | 72 | 0 | 0.0 | 0.0 | 0.00 | 0.00 | 0.00 | 91 | 1020.9 |
| 20260903044035 | 72 | 0 | 0.0 | 0.0 | 0.00 | 0.00 | 0.00 | 91 | 1021.0 |
| 20260903043532 | 72 | 0 | 0.0 | 0.0 | 0.00 | 0.00 | 0.00 | 91 | 1021.0 |
| 20260903043046 | 72 | 0 | 0.0 | 0.0 | 0.00 | 0.00 | 0.00 | 91 | 1021.0 |
| 20260903042533 | 72 | 0 | 0.0 | 0.0 | 0.00 | 0.00 | 0.00 | 92 | 1021.0 |
| 20260903042034 | 73 | 0 | 0.0 | 0.0 | 0.00 | 0.00 | 0.00 | 91 | 1021.2 |
| 20260903041558 | 73 | 0 | 0.0 | 0.0 | 0.00 | 0.00 | 0.00 | 91 | 1021.1 |
| 20260903041033 | 73 | 0 | 0.0 | 0.0 | 0.00 | 0.00 | 0.00 | 91 | 1021.3 |
| 20260903040533 | 73 | 0 | 0.0 | 1.0 | 0.00 | 0.00 | 0.00 | 91 | 1021.2 |
| 20260903035533 | 73 | 0 | 0.0 | 0.0 | 0.00 | 0.00 | 0.00 | 91 | 1021.3 |
| 20260903035034 | 73 | 0 | 0.0 | 0.0 | 0.00 | 0.00 | 0.00 | 90 | 1021.4 |
| 20260903034555 | 73 | 0 | 0.0 | 1.0 | 0.00 | 0.00 | 0.00 | 90 | 1021.5 |
| 20260903034030 | 73 | 0 | 0.0 | 1.0 | 0.00 | 0.00 | 0.00 | 90 | 1021.5 |
| 20260903033537 | 73 | 0 | 0.0 | 1.0 | 0.00 | 0.00 | 0.00 | 90 | 1021.5 |
| 20260903033048 | 73 | 0 | 0.0 | 1.0 | 0.00 | 0.00 | 0.00 | 90 | 1021.4 |
| 20260903032538 | 73 | 0 | 0.0 | 1.0 | 0.00 | 0.00 | 0.00 | 90 | 1021.4 |
| 20260903032034 | 73 | 0 | 0.0 | 0.0 | 0.00 | 0.00 | 0.00 | 90 | 1021.4 |
| 20260903031558 | 73 | 0 | 0.0 | 0.0 | 0.00 | 0.00 | 0.00 | 90 | 1021.6 |
| 20260903031032 | 74 | 0 | 0.0 | 0.0 | 0.00 | 0.00 | 0.00 | 89 | 1021.6 |
| 20260903030535 | 74 | 0 | 0.0 | 0.0 | 0.00 | 0.00 | 0.00 | 90 | 1021.7 |
| 20260903030059 | 74 | 0 | 0.0 | 0.0 | 0.00 | 0.00 | 0.00 | 89 | 1021.6 |
| 20260903025530 | 74 | 0 | 0.0 | 0.0 | 0.00 | 0.00 | 0.00 | 89 | 1021.6 |
| 20260903025035 | 74 | 0 | 0.0 | 0.0 | 0.00 | 0.00 | 0.00 | 90 | 1021.6 |
| 20260903024553 | 74 | 0 | 0.0 | 0.0 | 0.00 | 0.00 | 0.00 | 89 | 1021.5 |
| 20260903024033 | 74 | 0 | 0.0 | 0.0 | 0.00 | 0.00 | 0.00 | 89 | 1021.6 |
| 20260903023533 | 74 | 0 | 0.0 | 0.0 | 0.00 | 0.00 | 0.00 | 89 | 1021.5 |
| 20260903023048 | 74 | 0 | 0.0 | 0.0 | 0.00 | 0.00 | 0.00 | 89 | 1021.5 |
| 20260903022534 | 74 | 0 | 0.0 | 0.0 | 0.00 | 0.00 | 0.00 | 89 | 1021.5 |
| 20260903022035 | 74 | 0 | 0.0 | 0.0 | 0.00 | 0.00 | 0.00 | 88 | 1021.5 |
| 20260903021558 | 74 | 0 | 0.0 | 0.0 | 0.00 | 0.00 | 0.00 | 89 | 1021.5 |
| 20260903021034 | 74 | 0 | 0.0 | 0.0 | 0.00 | 0.00 | 0.00 | 88 | 1021.5 |
| 20260903020533 | 74 | 0 | 0.0 | 0.0 | 0.00 | 0.00 | 0.00 | 88 | 1021.5 |
| 20260903020052 | 75 | 0 | 0.0 | 0.0 | 0.00 | 0.00 | 0.00 | 88 | 1021.4 |
| 20260903015533 | 75 | 0 | 0.0 | 0.0 | 0.00 | 0.00 | 0.00 | 87 | 1021.6 |
| 20260903015034 | 75 | 0 | 0.0 | 0.0 | 0.00 | 0.00 | 0.00 | 87 | 1021.5 |
| 20260903014618 | 75 | 0 | 0.0 | 0.0 | 0.00 | 0.00 | 0.00 | 87 | 1021.3 |
| 20260903014033 | 75 | 0 | 0.0 | 0.0 | 0.00 | 0.00 | 0.00 | 87 | 1021.3 |
| 20260903013536 | 75 | 0 | 0.0 | 0.0 | 0.00 | 0.00 | 0.00 | 87 | 1021.2 |
| 20260903013047 | 75 | 0 | 0.0 | 0.0 | 0.00 | 0.00 | 0.00 | 87 | 1021.2 |
| 20260903012532 | 75 | 0 | 0.0 | 0.0 | 0.00 | 0.00 | 0.00 | 87 | 1021.1 |
| 20260903012034 | 75 | 0 | 0.0 | 0.0 | 0.00 | 0.00 | 0.00 | 87 | 1020.9 |
| 20260903011608 | 75 | 0 | 0.0 | 0.0 | 0.00 | 0.00 | 0.00 | 87 | 1020.9 |
| 20260903011033 | 75 | 0 | 0.0 | 0.0 | 0.00 | 0.00 | 0.00 | 86 | 1020.8 |
| 20260903010533 | 76 | 0 | 0.0 | 0.0 | 0.00 | 0.00 | 0.00 | 86 | 1020.8 |
| 20260903010054 | 76 | 0 | 0.0 | 0.0 | 0.00 | 0.00 | 0.00 | 86 | 1020.7 |
| 20260903005533 | 76 | 0 | 0.0 | 0.0 | 0.00 | 0.00 | 0.00 | 86 | 1020.5 |
| 20260903005034 | 76 | 0 | 0.0 | 0.0 | 0.00 | 0.00 | 0.00 | 85 | 1020.5 |
| 20260903004557 | 76 | 0 | 0.0 | 0.0 | 0.00 | 0.00 | 0.00 | 85 | 1020.6 |
| 20260903004033 | 77 | 0 | 0.0 | 0.0 | 0.00 | 0.00 | 0.00 | 85 | 1020.6 |
| 20260903003534 | 77 | 0 | 0.0 | 0.0 | 0.00 | 0.00 | 0.00 | 84 | 1020.7 |
| 20260903003059 | 77 | 0 | 0.0 | 0.0 | 0.00 | 0.00 | 0.00 | 83 | 1020.6 |
| 20260903002534 | 77 | 0 | 0.0 | 0.0 | 0.00 | 0.00 | 0.00 | 83 | 1020.6 |
| 20260903002035 | 77 | 0 | 0.0 | 0.0 | 0.00 | 0.00 | 0.00 | 83 | 1020.6 |
| 20260903001556 | 78 | 0 | 0.0 | 0.0 | 0.00 | 0.00 | 0.00 | 82 | 1020.5 |
| 20260903001033 | 78 | 0 | 0.0 | 0.0 | 0.00 | 0.00 | 0.00 | 83 | 1020.4 |
| 20260903000533 | 79 | 0 | 0.0 | 0.0 | 0.00 | 0.00 | 0.00 | 83 | 1020.3 |
| 20260903000104 | 79 | 0 | 0.0 | 0.0 | 0.00 | 0.00 | 0.00 | 82 | 1020.4 |
| 20260902235534 | 79 | 0 | 0.0 | 0.0 | 0.00 | 0.00 | 0.00 | 80 | 1020.4 |
| 20260902235033 | 79 | 0 | 0.0 | 0.0 | 0.00 | 0.00 | 0.00 | 80 | 1020.3 |
| 20260902234559 | 80 | 0 | 0.0 | 0.0 | 0.00 | 0.00 | 0.00 | 79 | 1020.4 |
| 20260902234033 | 80 | 0 | 0.0 | 0.0 | 0.00 | 0.00 | 0.00 | 79 | 1020.1 |
| 20260902233555 | 81 | 0 | 0.0 | 0.0 | 0.00 | 0.00 | 0.00 | 80 | 1020.3 |
| 20260902233059 | 81 | 0 | 0.0 | 1.0 | 0.00 | 0.00 | 0.00 | 80 | 1020.2 |
| 20260902232533 | 82 | 0 | 0.0 | 1.0 | 0.00 | 0.00 | 0.00 | 79 | 1020.3 |
| 20260902232039 | 82 | 0 | 0.0 | 2.0 | 0.00 | 0.00 | 0.00 | 78 | 1020.4 |
| 20260902231557 | 83 | 0 | 0.0 | 2.0 | 0.00 | 0.00 | 0.00 | 77 | 1020.3 |
| 20260902231036 | 83 | 0 | 0.0 | 2.0 | 0.00 | 0.00 | 0.00 | 75 | 1020.5 |
| 20260902230536 | 84 | 0 | 0.0 | 1.0 | 0.00 | 0.00 | 0.00 | 74 | 1020.4 |
| 20260902230106 | 84 | 0 | 0.0 | 0.0 | 0.00 | 0.00 | 0.00 | 75 | 1020.4 |
| 20260902225537 | 85 | 0 | 0.0 | 0.0 | 0.00 | 0.00 | 0.00 | 73 | 1020.3 |
| 20260902225036 | 85 | 0 | 0.0 | 1.0 | 0.00 | 0.00 | 0.00 | 74 | 1020.3 |
| 20260902224605 | 85 | 0 | 0.0 | 1.0 | 0.00 | 0.00 | 0.00 | 74 | 1020.4 |
| 20260902224036 | 85 | 0 | 0.0 | 2.0 | 0.00 | 0.00 | 0.00 | 73 | 1020.3 |
| 20260902223536 | 85 | 0 | 0.0 | 2.0 | 0.00 | 0.00 | 0.00 | 73 | 1020.2 |
| 20260902223106 | 85 | 0 | 0.0 | 2.0 | 0.00 | 0.00 | 0.00 | 72 | 1020.2 |
| 20260902222535 | 85 | 0 | 0.0 | 0.0 | 0.00 | 0.00 | 0.00 | 72 | 1020.4 |
| 20260902222035 | 86 | 0 | 0.0 | 0.0 | 0.00 | 0.00 | 0.00 | 72 | 1020.4 |
| 20260902221559 | 86 | 0 | 0.0 | 0.0 | 0.00 | 0.00 | 0.00 | 70 | 1020.3 |
| 20260902221033 | 86 | 0 | 0.0 | 0.0 | 0.00 | 0.00 | 0.00 | 71 | 1020.4 |
| 20260902220533 | 87 | 0 | 0.0 | 0.0 | 0.00 | 0.00 | 0.00 | 69 | 1020.4 |
| 20260902220109 | 87 | 0 | 0.0 | 2.0 | 0.00 | 0.00 | 0.00 | 69 | 1020.5 |
| 20260902215535 | 87 | 0 | 0.0 | 2.0 | 0.00 | 0.00 | 0.00 | 67 | 1020.5 |
| 20260902215032 | 87 | 0 | 0.0 | 2.0 | 0.00 | 0.00 | 0.00 | 65 | 1020.6 |
| 20260902214607 | 88 | 0 | 0.0 | 5.0 | 0.00 | 0.00 | 0.00 | 65 | 1020.6 |
| 20260902214035 | 88 | 0 | 1.0 | 5.0 | 0.00 | 0.00 | 0.00 | 64 | 1020.5 |
| 20260902213536 | 88 | 207 | 0.0 | 4.0 | 0.00 | 0.00 | 0.00 | 64 | 1020.5 |
| 20260902213056 | 88 | 0 | 1.0 | 5.0 | 0.00 | 0.00 | 0.00 | 65 | 1020.4 |
| 20260902212535 | 88 | 192 | 2.0 | 5.0 | 0.00 | 0.00 | 0.00 | 62 | 1020.3 |
| 20260902212033 | 88 | 0 | 1.0 | 5.0 | 0.00 | 0.00 | 0.00 | 62 | 1020.4 |
| 20260902211554 | 88 | 213 | 1.0 | 5.0 | 0.00 | 0.00 | 0.00 | 63 | 1020.4 |
| 20260902211034 | 88 | 0 | 0.0 | 4.0 | 0.00 | 0.00 | 0.00 | 62 | 1020.3 |
| 20260902210537 | 88 | 205 | 0.0 | 4.0 | 0.00 | 0.00 | 0.00 | 64 | 1020.4 |
| 20260902210056 | 88 | 200 | 1.0 | 4.0 | 0.00 | 0.00 | 0.00 | 61 | 1020.5 |
| 20260902205534 | 88 | 0 | 1.0 | 7.0 | 0.00 | 0.00 | 0.00 | 63 | 1020.4 |
| 20260902205035 | 88 | 207 | 1.0 | 7.0 | 0.00 | 0.00 | 0.00 | 64 | 1020.5 |
| 20260902204557 | 88 | 189 | 1.0 | 6.0 | 0.00 | 0.00 | 0.00 | 63 | 1020.5 |
| 20260902204033 | 88 | 203 | 1.0 | 5.0 | 0.00 | 0.00 | 0.00 | 63 | 1020.6 |
| 20260902203533 | 88 | 0 | 0.0 | 4.0 | 0.00 | 0.00 | 0.00 | 63 | 1020.6 |
| 20260902203056 | 88 | 0 | 1.0 | 4.0 | 0.00 | 0.00 | 0.00 | 63 | 1020.6 |
| 20260902202533 | 88 | 0 | 0.0 | 4.0 | 0.00 | 0.00 | 0.00 | 67 | 1020.6 |
| 20260902202034 | 87 | 0 | 0.0 | 2.0 | 0.00 | 0.00 | 0.00 | 64 | 1020.5 |
| 20260902201605 | 87 | 0 | 0.0 | 5.0 | 0.00 | 0.00 | 0.00 | 63 | 1020.6 |
| 20260902201034 | 88 | 0 | 0.0 | 5.0 | 0.00 | 0.00 | 0.00 | 65 | 1020.6 |
| 20260902200535 | 89 | 210 | 0.0 | 3.0 | 0.00 | 0.00 | 0.00 | 63 | 1020.7 |
| 20260902200058 | 89 | 209 | 1.0 | 5.0 | 0.00 | 0.00 | 0.00 | 61 | 1020.8 |
| 20260902195533 | 89 | 0 | 0.0 | 5.0 | 0.00 | 0.00 | 0.00 | 60 | 1020.8 |
| 20260902195034 | 89 | 196 | 0.0 | 5.0 | 0.00 | 0.00 | 0.00 | 60 | 1020.9 |
| 20260902194600 | 89 | 0 | 0.0 | 3.0 | 0.00 | 0.00 | 0.00 | 62 | 1021.0 |
| 20260902194035 | 89 | 0 | 0.0 | 3.0 | 0.00 | 0.00 | 0.00 | 63 | 1021.1 |
| 20260902193535 | 89 | 0 | 0.0 | 3.0 | 0.00 | 0.00 | 0.00 | 61 | 1021.1 |
| 20260902193058 | 89 | 216 | 0.0 | 2.0 | 0.00 | 0.00 | 0.00 | 63 | 1021.1 |
| 20260902192533 | 89 | 0 | 0.0 | 5.0 | 0.00 | 0.00 | 0.00 | 59 | 1021.2 |
| 20260902192034 | 88 | 0 | 0.0 | 6.0 | 0.00 | 0.00 | 0.00 | 63 | 1021.4 |